This is the latest recevied weather packets stored in our database for station/object WB4YDL. If no packets are shown the sender has not sent any weather packets the latest 10 day(s).
| Time | Temp. | Humidity | Pressure | Rain* | Wind** | Luminosity | Snow |
|---|---|---|---|---|---|---|---|
| 1777477737 | 15.56° C | 94% | 1011 hPa | 0 mm | - | 262 W/m² | - |
| 1777477434 | 15.56° C | 95% | 1011.1 hPa | 0 mm | - | 184 W/m² | - |
| 1777477130 | 15.56° C | 95% | 1011.1 hPa | 1.27 mm | - | 143 W/m² | - |
| 1777476827 | 15.56° C | 94% | 1011 hPa | 1.27 mm | - | 118 W/m² | - |
| 1777476525 | 16.11° C | 92% | 1011 hPa | 0 mm | - | 85 W/m² | - |
| 1777476221 | 16.11° C | 91% | 1010.8 hPa | 0 mm | - | 165 W/m² | - |
| 1777475916 | 16.11° C | 91% | 1010.6 hPa | 0 mm | - | 289 W/m² | - |
| 1777475613 | 16.11° C | 92% | 1010.6 hPa | 0 mm | - | 343 W/m² | - |
| 1777475309 | 16.11° C | 93% | 1010.8 hPa | 0 mm | - | 355 W/m² | - |
| 1777475004 | 16.11° C | 95% | 1010.6 hPa | 0 mm | - | 309 W/m² | - |
| 1777474701 | 16.11° C | 97% | 1010.5 hPa | 0 mm | - | 306 W/m² | - |
| 1777474397 | 15.56° C | 98% | 1010.3 hPa | 0 mm | - | 402 W/m² | - |
| 1777474094 | 15° C | 99% | 1010.2 hPa | 0 mm | - | 363 W/m² | - |
| 1777473792 | 15° C | 99% | 1010.2 hPa | 0 mm | - | 197 W/m² | - |
| 1777473489 | 14.44° C | 99% | 1010.2 hPa | 0 mm | - | 180 W/m² | - |
| 1777473184 | 14.44° C | 99% | 1010.1 hPa | 0 mm | - | 70 W/m² | - |
| 1777472881 | 14.44° C | 99% | 1010.3 hPa | 1.78 mm | - | 52 W/m² | - |
| 1777472576 | 15° C | 99% | 1010.1 hPa | 1.78 mm | - | 58 W/m² | - |
| 1777472269 | 15° C | 99% | 1009.9 hPa | 0 mm | - | 54 W/m² | - |
| 1777471964 | 14.44° C | 99% | 1009.8 hPa | 0 mm | - | 55 W/m² | - |
| 1777471661 | 14.44° C | 99% | 1010 hPa | 0 mm | - | 60 W/m² | - |
| 1777471358 | 15° C | 99% | 1009.8 hPa | 0 mm | - | 50 W/m² | - |
| 1777471054 | 15° C | 99% | 1009.7 hPa | 0 mm | - | 38 W/m² | - |
| 1777470751 | 15° C | 99% | 1009.7 hPa | 0 mm | - | 41 W/m² | - |
| 1777470447 | 15° C | 99% | 1009.8 hPa | 0 mm | - | 52 W/m² | - |
* Rain latest hour (hover to see other rain measurements)
** Current wind speed in m/s (hover to see current wind gust speed)